{"data":{"norad_id":68660,"epoch":"2026-09-20T03:16:14.795904Z","epoch_age_seconds":94647,"freshness":"FRESH","line1":"1 68660U 26076E   26263.13628236  .00000011  00000+0 -90917-5 0  9990","line2":"2 68660  86.5030  11.7952 0001356 113.8988 246.2288 13.24407447 21931","mean_motion":13.24407447,"eccentricity":0.0001356,"inclination_deg":86.503,"raan_deg":11.7952,"arg_perigee_deg":113.8988,"mean_anomaly_deg":246.2288,"bstar":-9.0917e-6,"rev_number":2193,"period_min":108.727869453,"perigee_km":1166.9086361465,"apogee_km":1168.9551300276,"semimajor_km":7546.068883087,"source":"CELESTRAK","updated_at":"2026-09-20T09:00:24.399179Z"}}